This demonstration page uses our WeatherBlox Daily Observations layout. Learn more.

Left ArrowRight Arrow

41.12389, -100.76542

Hourly Observations for November 5, 2016

Temp ( °F °C ) Dew Point ( °F °C ) Humidity (%) Winds ( mph kmh ) Pressure ( in mb ) Visibility ( mi km ) Precip ( " mm )
12:53 am 00:53 Clear 52 11.1 36 2.2 55 55 SW 7 11 30.25 1024 10 16 0.00 0.00
1:53 am 01:53 Clear 48 8.9 35 1.7 61 61 Calm 30.26 1025 10 16 0.00 0.00
2:53 am 02:53 Clear 47 8.3 34 1.1 61 61 SW 3 6 30.25 1024 10 16 0.00 0.00
3:53 am 03:53 Clear 39 3.9 32 0 76 76 Calm 30.25 1024 10 16 0.00 0.00
4:53 am 04:53 Clear 35 1.7 30 -1.1 82 82 NE 3 6 30.24 1024 10 16 0.00 0.00
5:53 am 05:53 Clear 38 3.3 31 -0.6 76 76 Calm 30.24 1024 10 16 0.00 0.00
6:53 am 06:53 Clear 33 0.6 30 -1.1 89 89 ENE 5 7 30.27 1025 10 16 0.00 0.00
7:53 am 07:53 Clear 33 0.6 30 -1.1 89 89 E 3 6 30.28 1026 10 16 0.00 0.00
8:53 am 08:53 Sunny 31 -0.6 28 -2.2 89 89 Calm 30.29 1026 10 16 0.00 0.00
9:53 am 09:53 Sunny 43 6.1 36 2.2 76 76 SE 3 6 30.29 1026 10 16 0.00 0.00
10:53 am 10:53 Sunny 56 13.3 39 3.9 53 53 S 7 11 30.27 1025 10 16 0.00 0.00
11:53 am 11:53 Sunny 62 16.7 36 2.2 38 38 S 8 13 30.24 1024 10 16 0.00 0.00
12:53 pm 12:53 Sunny 67 19.4 36 2.2 32 32 S 15 24 30.19 1022 10 16 0.00 0.00
1:53 pm 13:53 Sunny 70 21.1 35 1.7 28 28 S 17 28 30.15 1021 10 16 0.00 0.00
2:53 pm 14:53 Sunny 72 22.2 35 1.7 26 26 S 16 26 30.11 1020 10 16 0.00 0.00
3:53 pm 15:53 Sunny 73 22.8 35 1.7 25 25 SSE 13 20 30.11 1020 10 16 0.00 0.00
4:53 pm 16:53 Sunny 71 21.7 35 1.7 27 27 SSE 14 22 30.11 1020 10 16 0.00 0.00
5:53 pm 17:53 Sunny 68 20 35 1.7 30 30 SE 9 15 30.11 1020 10 16 0.00 0.00
6:53 pm 18:53 Clear 61 16.1 35 1.7 38 38 SE 8 13 30.14 1021 10 16 0.00 0.00
7:53 pm 19:53 Clear 58 14.4 36 2.2 44 44 SE 8 13 30.15 1021 10 16 0.00 0.00
8:53 pm 20:53 Clear 50 10 37 2.8 61 61 E 6 9 30.17 1022 10 16 0.00 0.00
9:53 pm 21:53 Clear 49 9.4 41 5 74 74 ESE 7 11 30.15 1021 10 16 0.00 0.00
10:53 pm 22:53 Clear 56 13.3 49 9.4 77 77 SE 9 15 30.12 1020 10 16 0.00 0.00
11:53 pm 23:53 Clear 55 12.8 49 9.4 80 80 ESE 8 13 30.11 1020 10 16 0.00 0.00

Powered by AerisWeather